Regional Weather Roundup
Issued by NWS

Home | Current Version | Previous Version | Text Only | Print | Product List | Glossary On
Versions: 1 2 3 4 5 6 7 8 9 10 11 12 13 14 15 16 17 18 19 20 21 22 23 24 25 26 27 28 29 30 31 32 33 34 35 36 37 38 39 40 41 42 43 44 45 46 47 48 49 50
000
ASUS45 KTFX 261119
RWRMT
MONTANA HOURLY WEATHER ROUNDUP
NATIONAL WEATHER SERVICE GREAT FALLS MT
419 AM MST FRI DEC 26 2014

NOTE: "FAIR" INDICATES FEW OR NO CLOUDS BELOW 12000 FEET WITH NO
SIGNIFICANT WEATHER AND/OR OBSTRUCTIONS TO VISIBILITY.

* THESE STATIONS ARE NOT UNDER NWS QUALITY CONTROL. THEY DO NOT
   REPORT WEATHER SUCH AS PRECIPITATION OR FOG.

MTZ001>007-043-261200-
WEST OF THE DIVIDE
CITY           SKY/WX    TMP DP  RH WIND       PRES   REMARKS
KALISPELL      CLOUDY    25  23  92 CALM      30.05R
MISSOULA       CLOUDY    27  21  78 CALM      30.06S
BUTTE          CLOUDY    12   9  88 CALM      29.96S
MULLAN PASS    HAZE      19  16  88 NW8       29.94R WCI   9
* ESSEX        N/A       22  20  92 N/A        N/A
* HAMILTON APT CLOUDY    27  19  72 S6        30.04F WCI  20
* LIBBY APT    CLEAR     21  19  92 CALM      30.11R
* LINCOLN      N/A       22  17  81 S3         N/A
* LOOKOUT PASS N/A       23  19  85 NE5        N/A   WCI  16
* POLSON       N/A       25  24  96 N/A        N/A
* RONAN APT    CLOUDY    28  27  96 N/A        N/A
* SEELEY LAKE  N/A       20  18  92 N/A        N/A
* THOMP F APT  PTCLDY    15   3  59 N10G20     N/A   WCI   3
* YAAK HILL    N/A       27  24  88 NE1        N/A
$$

MTZ008-052>055-261200-
SOUTHWEST MONTANA
CITY           SKY/WX    TMP DP  RH WIND       PRES   REMARKS
BOZEMAN        CLOUDY    10   7  88 SE5       30.01S WCI   1
DILLON         CLOUDY    12   7  80 CALM      29.97R
* W YELLOWSTON PTCLDY   -15 -22  70 N/A        N/A
* THREE FORKS  MOCLDY    12  12 100 N/A        N/A
* BOULDER HILL N/A       17   9  71 SE3G9      N/A
* MONIDA PASS  N/A        8   6  91 NW7        N/A   WCI  -3
* RAYNOLDS PAS N/A        6   6 100 N1         N/A
* WHITEHALL    N/A       14   8  77 SW5        N/A   WCI   6
* WISE RIVER   N/A       10   6  84 W2         N/A
$$

MTZ009>010-012-014-046-048-049-054-261200-
EAST SLOPES AND CENTRAL MONTANA
CITY           SKY/WX    TMP DP  RH WIND       PRES   REMARKS
CUT BANK       LGT SNOW  21  19  92 N23       29.99R VSB 2 1/2 WCI   5
GREAT FALLS    CLOUDY    21  16  81 SW9       29.96R WCI  11
HELENA         LGT SNOW  18  16  92 SW5       30.00F VSB 3    WCI  11
MALMSTROM AFB  CLOUDY    21  18  88 W9        29.99R WCI  11
* CONRAD       CLOUDY    25  19  78 W18G25     N/A   WCI  11
* DEARBORN     N/A       15  13  92 S3         N/A
* EAST GLACIER N/A       21  16  81 NE17       N/A   WCI   7
* MONARCH      N/A       14   9  80 S8         N/A   WCI   3
* PENDROY      N/A       22  21  96 N20        N/A   WCI   7
* SWEET GRASS  N/A       20  19  96 VRB17G23    N/A   WCI   5
* WHITE SULPH  N/A        7   2  80 SW1        N/A
$$

MTZ011-013-016-021-035-040-045-047-050-051-261200-
NORTH CENTRAL MONTANA
CITY           SKY/WX    TMP DP  RH WIND       PRES   REMARKS
HAVRE          CLOUDY    21  18  88 CALM      29.98S
LEWISTOWN      FAIR       7   3  83 SE7       29.95S WCI  -5
* N BAR RANCH  CLEAR      3  -2  79 NW5G12    29.95S WCI  -7
* CHINOOK      CLOUDY    23  19  85 CALM      30.00S
* CHESTER      N/A       13  10  88 N/A        N/A
* DENTON       N/A        7   2  80 S1G6       N/A
* GEYSER       N/A       20  12  71 W7         N/A   WCI  11
* JUDITH GAP   N/A        9   8  96 N/A        N/A
* LOMA         N/A       16  13  88 NE3        N/A
$$

MTZ017>020-022>027-061-062-261200-
NORTHEAST MONTANA
CITY           SKY/WX    TMP DP  RH WIND       PRES   REMARKS
GLASGOW        CLOUDY    18  12  77 SE10      30.04F WCI   6
GLENDIVE       CLOUDY    18  14  84 E5        30.08S WCI  11
JORDAN         PTCLDY    21  16  81 CALM      30.03S
SIDNEY         CLOUDY    14  10  84 N5        30.13S WCI   6
WOLF POINT     MOCLDY    14  10  84 E7        30.10S WCI   4
* BEAVER HILL  N/A       16  12  84 S3         N/A
* CIRCLE       N/A       21  18  88 N/A        N/A
* LINDSAY DVD  N/A       21  15  78 W4         N/A
* NAVAJO       N/A       10   7  88 SW6        N/A
* PLENTYWOOD A CLEAR     12   9  88 CALM      30.08S
* POPLAR APT   CLEAR     10   7  88 N/A       30.10F
* SACO         N/A       20  17  88 E8         N/A   WCI  10
$$

MTZ028>042-056>058-261200-
SOUTHCENTRAL AND SOUTHEAST MONTANA
CITY           SKY/WX    TMP DP  RH WIND       PRES   REMARKS
BAKER          CLOUDY    19  14  81 NW7       30.06R WCI  10
BILLINGS       PTCLDY    10   9  96 SW14      30.01R WCI  -6
LIVINGSTON     CLOUDY     3  -2  79 NW10      29.98S WCI -12
MILES CITY     CLOUDY    21  18  88 S3        30.06S
* BIG TIMBER A PTCLDY     7   3  83 NW5       29.98R VSB 1 3/4 WCI  -2
* FORSYTH APT  PTCLDY    23  19  85 SE5       30.06R WCI  16
* LAUREL APT   PTCLDY     7   0  73 SW5        N/A   WCI  -2
* ROUNDUP APT  PTCLDY    10   3  73 S10        N/A   WCI  -4
* ALZADA       N/A       19  14  81 W6         N/A   WCI  11
* HYSHAM       N/A       22  16  78 N/A        N/A
* LAME DEER    N/A       16  14  92 SW2        N/A
* REED POINT   N/A        2   0  91 W5         N/A   WCI  -8
$$

REGIONAL REPORTS...DAKOTAS
CITY           SKY/WX    TMP DP  RH WIND       PRES   REMARKS
WILLISTON      LGT SNOW  14   9  80 W3        30.12R
DICKINSON      CLOUDY    18  10  71 NW12      30.06R WCI   5
BEACH          CLOUDY    16  14  92 CALM      30.07S
CROSBY         CLOUDY     7   5  91 NW6       30.12R WCI  -4
TIOGA          LGT SNOW   9   9 100 NW8       30.12R WCI  -3
WATFORD CITY   CLOUDY    14  10  84 NW5       30.09R WCI   6
BISMARCK       CLOUDY    18  10  71 NW12      30.12R WCI   5
GRAND FORKS    CLOUDY    25  19  78 N7        30.09R WCI  17
FARGO          MOCLDY    25  18  75 N16       30.07R WCI  12
BUFFALO SD     PTCLDY    19  12  74 N9        29.97S WCI   8
RAPID CITY     CLOUDY    19  16  88 N12       30.03S WCI   6
$$

REGIONAL REPORTS...WYOMING/IDAHO/WASHINGTON
CITY           SKY/WX    TMP DP  RH WIND       PRES   REMARKS
GILLETTE       CLOUDY    18  14  84 N6        29.97S WCI  10
SHERIDAN       CLOUDY    19  14  81 CALM      30.00S
CODY           CLOUDY    18  14  84 W5        29.94S WCI  11
YELLOWSTONE LA MOCLDY     0  -6  75 CALM      29.84R
SALMON         CLOUDY    21  18  88 N/A       30.04R
MULLAN PASS    HAZE      19  16  88 NW8       29.94S WCI   9
SAND POINT     CLEAR     27  27 100 CALM      30.13R
SPOKANE        FAIR      25  23  92 CALM      30.12R
$$

REGIONAL REPORTS...ALBERTA
CITY           SKY/WX    TMP DP  RH WIND       PRES   REMARKS
CALGARY        PTCLDY    19  14  81 W5        30.03S WCI  12
LETHBRIDGE     LGT SNOW  23  23 100 VRB2      30.06R
MEDICINE HAT   LGT SNOW  18  16  92 N7        30.07R WCI   9
EDMONTON       FAIR       1  -2  87 SW5       30.06S WCI  -9
WATERTON GATE  N/A       21  19  92 CALM       N/A
CARDSTON       N/A       21  21 100 N9         N/A   WCI  11
MILK RIVER     N/A       19  18  96 N17        N/A   WCI   4
$$

REGIONAL REPORTS...SASKATCHEWAN
CITY           SKY/WX    TMP DP  RH WIND       PRES   REMARKS
SWIFT CURRENT  LGT SNOW   7   5  91 SE6       30.01S WCI  -4
REGINA         LGT SNOW   0  -2  91 N7        30.14R WCI -13
VAL MARIE      N/A       18  16  92 SE2        N/A
ASSINIBOIA     N/A        5   1  83 E1         N/A

$$



USA.gov is the U.S. government's official web portal to all federal, state and local government web resources and services.